Location: SAPM � Hemmingford
(45.0500°N, 73.5833°W)
Time: 22:04:32
(UTC-04:00)

Daily predictions for brighter satellites

Satellite Brightness Start Highest point End
(mag) Time Altitude Azimuth Time Altitude Azimuth Time Altitude Azimuth
FENGYUN 3A 4.3 18:30:16 10° SE 18:35:02 34° ENE 18:39:52 10° N
GP-B 3.6 18:31:25 10° NNE 18:35:36 39° E 18:39:45 10° SSE
MOS 1 4.3 18:31:46 10° SSE 18:37:20 61° ENE 18:42:57 10° N
Cosmos 1703 4.1 18:35:47 10° NNE 18:39:14 28° ENE 18:42:39 10° SE
CZ-2C R/B 3.7 18:36:12 10° NNE 18:40:48 89° ESE 18:45:17 10° SSW
CZ-4 R/B 1.9 18:37:15 10° S 18:41:28 70° WSW 18:45:39 10° NNW
Landsat 4 3.8 18:38:32 10° NNE 18:42:18 81° WNW 18:46:00 10° SSW
Abrixas rocket 2.3 18:39:38 10° SW 18:42:52 62° SSE 18:46:08 10° ENE
Cosmos 2219 Rocket 3.9 18:40:57 10° N 18:44:07 15° NE 18:47:17 10° ENE
USA 234 4.3 18:41:26 10° ENE 18:47:08 33° N 18:52:50 10° NW
Cosmos 1624 Rocket 4.0 18:42:50 10° NNW 18:48:05 83° ENE 18:53:19 10° SSE
Cosmos 1400 Rocket 3.2 18:44:22 10° N 18:48:17 43° ENE 18:52:06 10° SSE
Cosmos-2242 3.0 18:45:35 10° S 18:49:50 90° SSE 18:54:08 10° N
Cosmos 1371 Rocket 4.3 18:44:58 10° NNW 18:50:23 80° WSW 18:55:44 10° SSE
Thor Agena Rocket 4.5 18:46:44 10° NE 18:50:53 24° E 18:54:59 10° SSE
SKYMED 2 3.6 18:49:33 10° NNE 18:53:52 59° E 18:58:09 10° S
SL-16 R/B 2.4 18:48:19 10° NNW 18:54:00 78° WSW 18:59:40 10° SSE
BREEZE-M DEB (TANK) 4.0 18:38:21 10° WSW 18:54:05 87° SSE 18:58:14 12° ENE
Tiangong 1 3.3 18:53:53 10° WSW 18:55:46 17° SSW 18:57:37 10° SSE
Meteor 1-28 Rocket 3.7 18:52:50 10° N 18:56:38 66° WNW 19:00:22 10° SSW
ERS-2 3.6 18:54:56 10° S 18:58:27 42° W 19:01:59 10° NNW
Cosmos 1743 Rocket 3.5 18:56:12 10° N 19:00:33 66° E 19:04:55 10° SSE
Iridium 4 Rocket 4.4 18:57:33 10° SE 19:02:17 31° E 19:07:16 10° NNE
Cosmos 2151 3.0 18:59:52 10° N 19:04:06 55° ENE 19:08:17 10° SSE
Cosmos 1908 4.2 19:00:57 10° SSE 19:04:14 26° E 19:07:30 10° NNE
GRACE-2 4.3 19:03:31 10° SSE 19:05:54 34° E 19:08:18 10° NNE
GRACE-1 4.1 19:05:16 10° SSE 19:07:42 37° E 19:10:08 10° NNE
Cosmos 1842 Rocket 3.6 19:05:21 10° S 19:09:45 61° E 19:14:10 10° NNE
Cosmos 2237 Rocket 3.9 19:09:01 10° N 19:12:03 14° NE 19:13:50 13° ENE
H-2A R/B 3.5 19:08:47 10° SE 19:12:14 32° ENE 19:15:44 10° N
Resurs 01 Rocket 3.2 19:12:24 16° ENE 19:12:44 16° ENE 19:15:24 10° NNE
Cosmos 2366 rocket 4.0 19:08:35 10° S 19:14:49 89° ESE 19:21:03 10° N
Cosmos 2221 3.0 19:17:41 10° SSE 19:21:37 36° E 19:25:36 10° NNE
ISS -0.9 19:20:50 10° W 19:22:44 15° SW 19:24:38 10° S
Cosmos 1500 Rocket 3.5 19:18:36 10° N 19:22:59 87° ENE 19:27:19 10° S
FREGAT/IRIS 2.8 19:23:45 21° SE 19:25:26 45° ENE 19:28:19 10° N
SPOT 3 Rocket 4.1 19:21:45 10° S 19:26:53 63° WSW 19:32:05 10° NNW
Cosmos 1315 Rocket 2.8 19:25:09 10° N 19:29:11 64° ENE 19:33:14 10° SSE
Cosmos 158 Rocket 4.5 19:24:50 10° SSE 19:29:19 34° E 19:33:55 10° NE
Cosmos 921 Rocket 3.0 19:26:11 10° NNW 19:30:40 63° ENE 19:34:56 11° SSE
COSMOS 2428 3.1 19:25:42 10° NNW 19:31:06 43° ENE 19:34:16 23° ESE
Geosat FO 4.5 19:30:39 18° SE 19:33:10 71° ENE 19:36:48 10° NNW
Cosmos 2333 Rocket 3.2 19:29:41 10° N 19:34:31 27° NE 19:36:00 24° ENE
DMSP B5D1-3 4.5 19:30:28 10° NNE 19:35:37 89° WNW 19:40:46 10° SSW
HJ-1C 3.7 19:36:21 40° E 19:36:44 42° ENE 19:40:00 10° N
MOS 1-B Rocket 4.3 19:35:00 21° ESE 19:38:09 39° ENE 19:43:39 10° N
Cosmos 1461 4.3 19:34:35 10° WSW 19:38:22 36° NW 19:42:20 10° NNE
Cosmos 2360 Rocket 2.2 19:32:42 10° NNW 19:38:23 83° WSW 19:44:03 10° SSE
Cosmos 2058 3.4 19:34:40 10° NNW 19:38:51 62° W 19:42:56 10° S
Cosmos 1833 4.1 19:34:07 10° SSW 19:39:48 80° ESE 19:45:28 10° NNE
Cosmos 2098 Rocket 3.5 19:37:41 10° SSE 19:41:40 44° E 19:46:43 10° NNE
COSMO-SKYMED 1 3.8 19:37:47 10° N 19:41:54 43° WNW 19:46:00 10° SW
FengYun 1-2 T 4.1 19:36:51 10° SSE 19:42:20 74° ENE 19:47:49 10° N
Meteor 2-1 Rocket 4.3 19:37:05 10° S 19:42:51 86° WNW 19:48:47 10° N
RESURS DK-1 2.4 19:39:53 10° NNW 19:44:02 80° WSW 19:47:05 18° SSE
Cosmos 2322 Rocket 4.0 19:39:18 10° NW 19:44:12 31° WSW 19:49:04 10° SSW
Cosmos 2219 3.9 19:40:00 10° SSE 19:45:00 32° ESE 19:45:36 31° E
Cosmos 1626 3.9 19:42:08 10° NNW 19:45:33 34° W 19:48:58 10° SSW
Cosmos 468 4.5 19:41:33 10° S 19:46:38 57° ESE 19:51:46 10° NNE
SL-24 R/B - RUBIN 2 3.7 19:42:10 10° NW 19:47:08 81° WSW 19:49:57 23° SSE
Cosmos 1000 Rocket 4.4 19:45:51 10° N 19:52:08 76° E 19:58:19 10° SSE
Cosmos 1821 Rocket 3.9 19:46:28 10° S 19:52:28 60° E 19:58:36 10° NNE
USA 267 3.4 19:49:38 26° ENE 19:53:12 51° SE 19:59:31 10° SSW
BREEZE-M DEB (TANK) 2.7 19:51:28 10° SW 19:52:36 30° SW 19:52:36 30° SW
Cosmos 1452 Rocket 3.7 19:48:13 10° NNW 19:53:28 71° WSW 19:58:41 10° S
Lacrosse 5 rocket 3.5 19:51:54 10° WNW 19:55:21 22° NNW 19:57:43 14° NNE
SL-8 R/B 3.8 19:50:41 10° SW 19:55:25 57° SSE 19:56:27 46° ESE
SJ-6B 2.5 19:55:11 35° SSE 19:56:39 84° E 20:00:25 10° NNW
Sich 1 3.5 19:54:33 10° N 19:58:06 42° NE 19:58:06 42° NE
Cosmos 1805 Rocket 3.4 19:56:42 10° N 20:01:05 73° E 20:02:32 41° SSE
Cosmos 2239 Rocket 4.3 19:55:26 10° S 20:01:31 70° E 20:07:38 10° NNE
Cosmos 1934 Rocket 4.1 19:55:47 10° SSE 20:01:56 55° E 20:08:08 10° NNE
Atlas Centaur 2 4.0 19:59:16 10° SW 20:02:56 18° S 20:04:35 17° SSE
Cosmos 2322 4.0 19:58:05 10° NNW 20:03:46 66° WSW 20:09:19 10° SSE
DELTA 2 R/B (1) 4.2 19:58:57 10° W 20:04:15 45° S 20:05:56 35° SE
Gbstr 26 Del rocket 3.7 20:03:51 10° WNW 20:08:59 65° NNE 20:10:30 48° E
Cosmos 1666 Rocket 3.9 20:05:10 10° N 20:08:35 47° NNE 20:08:35 47° NNE
ALOS 4.0 20:06:24 10° SSW 20:10:34 32° W 20:14:47 10° NNW
BREEZE M DEB (TANK) 2.7 20:07:15 10° WNW 20:10:26 45° NW 20:10:26 45° NW
Spot 2 Rocket 3.6 20:11:22 50° ENE 20:11:22 50° ENE 20:16:07 10° N
CZ-4C R/B 2.9 20:09:12 10° S 20:12:17 32° SSE 20:12:17 32° SSE
Cosmos 2123 Rocket 3.9 20:12:03 10° N 20:18:16 69° E 20:20:47 38° SSE
Abrixas rocket 3.7 20:16:24 10° W 20:18:42 36° NW 20:18:42 36° NW
Cosmos 1633 Rocket 3.9 20:15:19 10° N 20:18:09 37° NNE 20:18:09 37° NNE
Aureole 2 Rocket 4.2 20:17:07 10° NNW 20:19:04 28° N 20:19:04 28° N
Cosmos 1605 Rocket 4.2 20:27:39 49° NE 20:27:39 49° NE 20:32:28 10° NNE
Cosmos 2219 Rocket 2.0 20:23:30 10° NNW 20:29:07 73° ENE 20:29:17 72° ENE
USA 234 3.4 20:28:01 48° ENE 20:29:22 57° NNE 20:35:46 10° NW
Cosmos 1048 Rocket 4.0 20:31:43 10° SSW 20:36:51 74° WNW 20:38:42 40° N
Envisat 3.1 20:46:16 70° NW 20:46:16 70° NW 20:50:51 10° NNW
Resurs 01 Rocket 2.7 20:49:59 42° NW 20:49:59 42° NW 20:53:08 10° NNW
Cosmos 2237 Rocket 2.9 20:51:34 10° NNW 20:55:40 46° N 20:55:40 46° N
In-Cosmos 22 Rocket 4.4 20:52:54 10° NNW 20:58:32 69° W 20:58:32 69° W
SL-16 R/B 3.8 21:00:08 10° NNW 21:02:44 24° N 21:02:44 24° N
COSMOS 2428 4.2 21:10:15 10° NW 21:15:12 32° WSW 21:16:20 29° SW
Cosmos 2333 Rocket 3.0 21:13:32 10° NNW 21:18:02 48° WNW 21:18:02 48° WNW
Cosmos 2219 4.4 21:23:31 10° SW 21:27:40 38° W 21:27:40 38° W
USA 267 3.7 21:37:01 55° WNW 21:37:01 55° WNW 21:42:40 10° WSW
